Regional Weather Roundup
Issued by NWS

Home | Current Version | Previous Version | Text Only | Print | Product List | Glossary On
Versions: 1 2 3 4 5 6 7 8 9 10 11 12 13 14 15 16 17 18 19 20 21 22 23 24 25 26 27 28 29 30 31 32 33 34 35 36 37 38 39 40 41 42 43 44 45 46 47 48 49 50
000
ASUS43 KOAX 241110
RWRNE

WEATHER ROUNDUP FOR NEBRASKA
NATIONAL WEATHER SERVICE OMAHA NE
600 AM CDT SUN SEP 24 2017

NOTES: SATELLITE DATA IS BEING USED TO AUGMENT CLOUD COVER ABOVE
       12000 FEET.
       "FAIR" INDICATES FEW OR NO CLOUDS BELOW 12,000 FEET WITH NO
       SIGNIFICANT WEATHER AND/OR OBSTRUCTIONS TO VISIBILITY.


NEZ001>004-019>022-054>056-241200-
NEBRASKA PANHANDLE

CITY           SKY/WX    TMP DP  RH WIND       PRES   REMARKS
SCOTTSBLUFF    CLOUDY    46  42  86 MISG      30.00R
ALLIANCE       CLOUDY    44  43  96 N8        29.97R FOG
CHADRON        CLOUDY    46  43  89 NE9       30.00R
GORDON         CLOUDY    46  45  96 NW9       29.96R FOG
KIMBALL        CLOUDY    43  43 100 N9        30.00R
SIDNEY         CLOUDY    44  43  96 N13       29.98R
$$

NEZ057>060-069>072-079>082-241200-
SOUTHWEST NEBRASKA

CITY           SKY/WX    TMP DP  RH WIND       PRES   REMARKS
NORTH PLATTE   RAIN      50  49  96 NW7       29.90R FOG
IMPERIAL       LGT RAIN  49  47  93 NE10      29.88F
LEXINGTON      RAIN      61  59  94 CALM      29.85F
MCCOOK         LGT RAIN  55  54  96 W14       29.86R
OGALLALA       RAIN      50  48  94 W6        29.94R
$$

NEZ005>010-023>029-035>040-094-241200-
NORTH CENTRAL NEBRASKA

CITY           SKY/WX    TMP DP  RH WIND       PRES   REMARKS
VALENTINE      LGT RAIN  51  49  92 N7        29.89F
AINSWORTH      HVY RAIN  50  50 100 NW6       29.90R
BROKEN BOW     CLOUDY    56  54  93 W13       29.88R
O`NEILL        CLOUDY    55  55 100 CALM      29.87F
ORD            CLOUDY    58  55  90 E3        29.85S
THEDFORD       RAIN      49  48  97 CALM      29.91S
$$

NEZ041-046>049-061>064-073>077-083>087-241200-
SOUTH CENTRAL NEBRASKA

CITY           SKY/WX    TMP DP  RH WIND       PRES   REMARKS
GRAND ISLAND   MOCLDY    66  63  90 S9        29.87S
AURORA         CLOUDY    67  63  88 S8        29.88S
HASTINGS       PTCLDY    70  62  76 S12       29.87F
HEBRON         MOCLDY    70  63  78 S7        29.89S
HOLDREGE       LGT RAIN  67  63  89 S6        29.85F
KEARNEY        CLOUDY    61  60  97 SE3       29.86S
YORK           MOCLDY    68  64  88 S10       29.89S
$$

NEZ011>018-030>034-042>045-241200-
NORTHEAST NEBRASKA

CITY           SKY/WX    TMP DP  RH WIND       PRES   REMARKS
NORFOLK        CLOUDY    67  63  87 S8        29.87S
ALBION         CLOUDY    57  56  97 CALM      29.87S
BLAIR          CLEAR     71  65  80 SE7       29.92S
COLUMBUS       CLEAR     71  63  75 SE12      29.88S
FREMONT        CLEAR     70  63  78 SE9       29.91S
TEKAMAH        CLEAR     65  62  90 SE3       29.90S
WAYNE          MOCLDY    68  65  92 S10       29.88S
$$

NEZ050>053-065>068-078-088>093-241200-
SOUTHEAST NEBRASKA

CITY           SKY/WX    TMP DP  RH WIND       PRES   REMARKS
LINCOLN        CLEAR     67  62  84 S8        29.91S
OMAHA EPPLEY   PTCLDY    70  64  81 SE8       29.92R
BEATRICE       CLEAR     69  63  80 SE6       29.91S
FALLS CITY     CLEAR     66  64  93 SE6       29.91S
NEBRASKA CITY  CLEAR     68  68  99 S5        29.93R
PLATTSMOUTH    CLEAR     71  67  87 SE8       29.93R
$$

NEZ044-045-051>053-067-241200-
OMAHA AREA

CITY           SKY/WX    TMP DP  RH WIND       PRES   REMARKS
OMAHA EPPLEY   PTCLDY    70  64  81 SE8       29.92R
BLAIR          CLEAR     71  65  80 SE7       29.92S
FREMONT        CLEAR     70  63  78 SE9       29.91S
MILLARD        CLEAR     71  66  87 SE3       29.92R
OFFUTT AFB     CLEAR     65  63  95 E6        29.91
PLATTSMOUTH    CLEAR     71  67  87 SE8       29.93R
WAHOO          FAIR      66  64  92 SE6       29.91S
$$




USA.gov is the U.S. government's official web portal to all federal, state and local government web resources and services.